Weather History for VDPP - April, 2014

Change the Weather History Date:

Friday, April 25, 2014

  Actual Average Record
Temperature  
Mean Temperature 88 °F -  
Max Temperature 96 °F 91 °F 96 °F (2002)
Min Temperature 79 °F 78 °F 75 °F (2006)
Cooling Degree Days 22    
Growing Degree Days 38 (Base 50)    
Moisture  
Dew Point 71 °F    
Average Humidity 55    
Maximum Humidity 79    
Minimum Humidity 37    
Precipitation  
Precipitation 0.00 in - - ()
Sea Level Pressure  
Sea Level Pressure 29.75 in    
Wind  
Wind Speed 6 mph ()    
Max Wind Speed 10 mph    
Max Gust Speed -    
Visibility 5.9 miles    
Events      
Averages and records for this station are not official NWS values.
T = Trace of Precipitation, MM = Missing Value Source: Averaged Metar Reports

Daily Weather History Graph

Daily Weather History Graph

Search for Another Location

Airport or City:

Trip Planner

Search our weather history database for the weather conditions in past years. The results will help you decide how hot, cold, wet, or windy it might be!

Date:

Astronomy

Apr. 25, 2014 Rise Set
Actual Time 5:44 AM ICT 6:13 PM ICT
Civil Twilight 5:22 AM ICT 6:34 PM ICT
Nautical Twilight 4:57 AM ICT 7:00 PM ICT
Astronomical Twilight 4:31 AM ICT 7:25 PM ICT
Moon 2:24 AM ICT (4/25) 2:42 PM ICT (4/25)
Length of Visible Light 13h 12m
Length of Day
12h 28m
Waning Crescent, 19% of the Moon is Illuminated
Apr 25
Waning Crescent
Apr 29
New
May 7
First Quarter
May 15
Full
May 21
Last Quarter

Hourly Weather History & Observations

Time (ICT) Temp. Heat Index Dew Point Humidity Pressure Visibility Wind Dir Wind Speed Gust Speed Precip Events Conditions
12:00 AM 84.2 °F 90.9 °F 73.4 °F 70% 29.77 in 5.6 mi SSW 4.6 mph - N/A   Partly Cloudy
12:30 AM 84.2 °F 90.9 °F 73.4 °F 70% 29.77 in 5.6 mi WSW 4.6 mph - N/A   Partly Cloudy
1:00 AM 84.2 °F 90.9 °F 73.4 °F 70% 29.74 in 5.6 mi WSW 4.6 mph - N/A   Partly Cloudy
6:00 AM 80.6 °F 85.4 °F 73.4 °F 79% 29.74 in 5.6 mi South 4.6 mph - N/A   Unknown
7:00 AM 82 °F - 77 °F 79% 29.82 in 6 mi SW 4.5 mph - -   Scattered Clouds
7:00 AM 82.4 °F 88.2 °F 73.4 °F 74% 29.77 in 5.6 mi SSE 5.8 mph - N/A   Unknown
7:30 AM 82.4 °F 88.2 °F 73.4 °F 74% 29.77 in - SSE 6.9 mph - N/A   Clear
8:00 AM 86.0 °F 93.4 °F 73.4 °F 66% 29.80 in - SSE 9.2 mph - N/A   Clear
8:30 AM 87.8 °F 95.6 °F 73.4 °F 62% 29.80 in - South 9.2 mph - N/A   Clear
9:00 AM 87.8 °F 95.6 °F 73.4 °F 62% 29.83 in - South 8.1 mph - N/A   Clear
9:30 AM 89.6 °F 98.2 °F 73.4 °F 59% 29.83 in 6.2 mi South 8.1 mph - N/A   Partly Cloudy
10:00 AM 91.4 °F 100.1 °F 73.4 °F 55% 29.83 in 6.2 mi South 8.1 mph - N/A   Partly Cloudy
10:30 AM 91.4 °F 100.1 °F 73.4 °F 55% 29.80 in 6.2 mi SE 6.9 mph - N/A   Partly Cloudy
11:00 AM 93.2 °F 100.5 °F 71.6 °F 49% 29.80 in 6.2 mi South 8.1 mph - N/A   Partly Cloudy
11:30 AM 93.2 °F 98.8 °F 69.8 °F 46% 29.80 in 6.2 mi SSW 6.9 mph - N/A   Partly Cloudy
12:00 PM 95.0 °F 101.3 °F 69.8 °F 44% 29.80 in 6.2 mi SSW 6.9 mph - N/A   Partly Cloudy
12:30 PM 95.0 °F 99.5 °F 68.0 °F 41% 29.74 in 6.2 mi SSE 6.9 mph - N/A   Scattered Clouds
1:00 PM 95.0 °F 99.5 °F 68.0 °F 41% 29.74 in 6.2 mi ESE 5.8 mph - N/A   Scattered Clouds
1:30 PM 96.8 °F 101.8 °F 68.0 °F 39% 29.71 in 6.2 mi SE 2.3 mph - N/A   Scattered Clouds
2:00 PM 96.8 °F 103.1 °F 69.8 °F 41% 29.71 in 6.2 mi Variable 4.6 mph - N/A   Scattered Clouds
2:30 PM 96.8 °F 101.8 °F 68.0 °F 39% 29.68 in 6.2 mi Variable 4.6 mph - N/A   Scattered Clouds
3:00 PM 96.8 °F 101.8 °F 68.0 °F 39% 29.68 in 6.2 mi SE 5.8 mph - N/A   Scattered Clouds
3:30 PM 96.8 °F 100.7 °F 66.2 °F 37% 29.68 in 6.2 mi South 2.3 mph - N/A   Scattered Clouds
4:00 PM 96.8 °F 103.1 °F 69.8 °F 41% 29.65 in 6.2 mi South 5.8 mph - N/A   Scattered Clouds
4:30 PM 95.0 °F 99.5 °F 68.0 °F 41% 29.65 in 6.2 mi South 8.1 mph - N/A   Scattered Clouds
5:00 PM 95.0 °F 99.5 °F 68.0 °F 41% 29.65 in 6.2 mi SE 8.1 mph - N/A   Partly Cloudy
5:30 PM 93.2 °F 97.7 °F 68.0 °F 44% 29.68 in 6.2 mi SE 6.9 mph - N/A   Partly Cloudy
6:00 PM 93.2 °F 98.8 °F 69.8 °F 46% 29.68 in 6.2 mi SE 9.2 mph - N/A   Partly Cloudy
6:30 PM 91.4 °F 95.4 °F 68.0 °F 46% 29.68 in 6.2 mi SE 8.1 mph - N/A   Partly Cloudy
7:00 PM 91.4 °F 98.4 °F 71.6 °F 52% 29.71 in 5.6 mi South 10.4 mph - N/A   Partly Cloudy
7:30 PM 87.8 °F 92.6 °F 69.8 °F 55% 29.71 in 5.6 mi SSW 9.2 mph - N/A   Partly Cloudy
8:00 PM 87.8 °F 92.6 °F 69.8 °F 55% 29.74 in 5.6 mi SSW 8.1 mph - N/A   Partly Cloudy
8:30 PM 86.0 °F 90.4 °F 69.8 °F 58% 29.74 in 5.6 mi SSW 5.8 mph - N/A   Partly Cloudy
9:00 PM 86.0 °F 90.4 °F 69.8 °F 58% 29.74 in 5.6 mi SSW 4.6 mph - N/A   Partly Cloudy
9:30 PM 86.0 °F 90.4 °F 69.8 °F 58% 29.74 in 5.6 mi SW 6.9 mph - N/A   Scattered Clouds
10:00 PM 86.0 °F 91.8 °F 71.6 °F 62% 29.77 in 5.6 mi SW 5.8 mph - N/A   Scattered Clouds
10:30 PM 86.0 °F 91.8 °F 71.6 °F 62% 29.77 in 5.6 mi WSW 3.5 mph - N/A   Scattered Clouds
11:00 PM 86.0 °F 91.8 °F 71.6 °F 62% 29.77 in 5.6 mi West 4.6 mph - N/A   Partly Cloudy
11:30 PM 86.0 °F 91.8 °F 71.6 °F 62% 29.77 in 5.6 mi WSW 5.8 mph - N/A   Partly Cloudy